[[{"header":{"parameterUnit":"m.s-1","parameterCategory":1,"la1":30.2991,"la2":30.254,"lo1":-89.0895,"lo2":-89.0444,"dy":0.0017,"dx":0.0017,"nx":28,"ny":28,"refTime":"2025-04-09T09:00:00:Z","depth":0,"parameterNumber":2,"parameterNumberName":"U-component_of_WINDS"},"data":[0,0,0,0,0,0,0,0,0,0,0,0,0,0,0,0,0,0,0,0,0,0,0,0,0,0,0,0,0,0,0,0,0,0,0,0,0,0,0,0,0,0,0,0,0,0,0,0,0,0,0,0,0,0,0,0,0,0,2.8359,2.836,0,2.8436,2.8437,2.8437,2.838,2.8378,2.8375,2.8373,2.8464,2.8469,2.8473,0,0,0,0,0,0,0,0,0,0,0,0,0,2.8178,2.8182,2.8359,2.836,2.8361,2.8436,2.8437,2.8438,2.8381,2.8378,2.8375,2.8372,2.8462,2.8468,2.8474,0,0,0,0,0,0,0,0,0,0,0,0,0,2.8256,2.8183,2.8359,2.8341,2.834,2.8435,2.8437,2.8438,2.8381,2.8378,2.8374,2.837,2.8461,2.8468,2.8475,2.8595,0,0,2.8497,2.85,0,0,0,0,0,0,0,0,2.8252,2.8263,2.8343,2.8343,2.8342,2.8394,2.8406,2.8491,2.8382,2.8366,2.8373,2.8368,2.8445,2.8453,2.8476,2.8599,2.8603,2.8497,2.8502,2.8505,2.8507,0,0,0,0,0,0,0,2.8247,2.826,2.839,2.8344,2.8344,2.8334,2.8341,2.8422,2.8426,2.8367,2.8363,2.8373,2.8444,2.8469,2.8478,2.8605,2.8497,2.8503,2.8508,2.8511,2.8835,2.8839,0,0,0,0,0,0,2.8241,2.8255,2.8387,2.8392,2.8286,2.8341,2.8348,2.8382,2.8425,2.8428,2.8376,2.837,2.8459,2.847,2.8481,2.8627,2.8505,2.8511,2.8515,2.8831,2.8836,2.8841,0,0,0,0,0,0,2.8237,2.8253,2.8384,2.8323,2.8338,2.8348,2.8386,2.8385,2.841,2.8431,2.8433,2.84,2.8456,2.8471,2.8567,2.8629,2.8515,2.8521,2.8826,2.8833,2.8839,2.8918,0,0,0,0,0,0,2.8232,2.8252,2.8294,2.8324,2.8342,2.8465,2.8389,2.8389,2.8421,2.8414,2.8454,2.8458,2.8454,2.8557,2.8574,2.8637,2.8527,2.8821,2.8829,2.8837,2.891,2.8927,2.8941,0,0,0,0,0,2.8226,2.8316,2.8297,2.8313,2.8394,2.8468,2.8479,2.847,2.8426,2.8471,2.8486,2.8456,2.862,2.8567,2.8586,2.8652,2.8817,2.8827,2.8836,2.8903,2.8924,2.894,0,0,0,0,0,0,2.8297,2.8319,2.8298,2.8399,2.8432,2.8458,2.8514,2.8491,2.854,2.8532,2.8522,2.8532,2.8634,2.8653,2.8594,2.8773,2.8712,2.8726,2.8757,2.8776,2.8791,2.8785,2.8533,0,0,0,0,0,2.8323,2.8377,2.8396,2.8484,2.8501,2.8505,2.8537,2.8527,2.8563,2.8577,2.8598,2.8638,2.8698,2.8738,2.8795,2.8913,2.8924,2.8969,2.8984,2.8996,2.9009,2.9077,2.9098,2.8873,2.8873,2.8873,0,0,2.838,2.8399,2.8435,2.8498,2.8522,2.8583,2.8517,2.8584,2.863,2.8589,2.868,2.8698,2.8742,2.885,2.8899,2.8869,2.9074,2.9009,2.9018,2.9024,2.9089,2.9111,2.913,2.888,2.8878,2.8877,0,0,2.8515,2.8533,2.8609,2.8635,2.8671,2.8674,2.8692,2.8723,2.8732,2.8823,2.8794,2.8853,2.8955,2.8988,2.9019,2.917,2.9147,2.919,2.927,2.9336,2.9354,2.937,2.9427,2.9447,2.9202,2.9202,2.9202,0,2.8582,2.8667,2.8652,2.8721,2.8752,2.8714,2.8794,2.8821,2.8877,2.8901,2.8866,2.8996,2.9023,2.9141,2.9178,2.9203,2.9228,2.9185,2.9352,2.9368,2.9382,2.9436,2.9457,2.9207,2.9207,2.9206,2.9206,0,2.875,2.8811,2.8869,2.8918,2.8956,2.9031,2.9032,2.9073,2.9061,2.9069,2.9166,2.9197,2.926,2.9287,2.9278,2.9406,2.9386,2.9352,2.929,2.9409,2.946,2.948,2.9214,2.9213,2.9211,2.921,0,0,2.8929,2.8971,2.8992,2.9016,2.9055,2.9104,2.918,2.9238,2.9275,2.9316,2.9382,2.9472,2.9441,2.9476,2.947,2.9528,2.965,2.9488,2.9489,2.9519,2.9797,2.9823,2.9847,2.9635,2.9639,2.9642,2.9794,0,2.9067,2.9192,2.9182,2.9303,2.9361,2.9328,2.9395,2.9429,2.944,2.9496,2.951,2.9574,2.9527,2.9548,2.9604,2.9623,2.9706,2.9612,2.9701,2.9704,2.9691,2.9873,2.99,3.0042,2.9814,2.9817,2.982,0,2.9243,2.9286,2.9412,2.9444,2.9469,2.9528,2.9582,2.9634,2.9675,2.9679,2.972,2.9705,2.9787,2.9723,2.9839,2.9775,2.9812,2.9827,2.9833,2.9842,2.9769,2.9889,3.0087,3.0109,2.985,2.9848,2.9846,0,2.9363,2.9454,2.9541,2.9562,2.9602,2.9645,2.9665,2.9701,2.9738,2.9788,2.9813,2.9874,2.9908,2.9958,2.9962,2.9915,3.0081,3.0016,3.0091,3.0091,3.0127,3.0125,3.0336,3.0149,3.0149,3.0148,3.0148,0,2.9518,2.9597,2.9595,2.9649,2.9739,2.9729,2.982,2.9836,2.9869,2.993,2.9907,2.9966,2.9968,3.003,3.0035,3.0132,3.0148,3.0157,3.0158,3.016,3.0159,3.0184,3.0175,3.0154,3.0153,3.0151,3.0151,0,2.9667,2.9668,2.9762,2.9792,2.9802,2.9867,2.9895,2.995,2.9959,3.0037,3.0055,3.0072,3.0144,3.0153,3.0238,3.0242,3.036,3.035,3.0345,3.0344,3.0418,3.0412,3.0654,3.0687,3.0477,3.0479,3.048,0,2.9765,2.9825,2.9861,2.9898,2.9919,2.9979,3.0016,3.0012,3.0053,3.0105,3.0155,3.0224,3.0278,3.0396,3.0419,3.0486,3.0478,3.0559,3.0488,3.049,3.0482,3.0479,3.0487,3.0572,3.0575,3.0577,3.0578,0,2.9941,2.994,2.9991,3.0045,3.0089,3.0132,3.0173,3.0206,3.0208,3.0256,3.0327,3.0369,3.0456,3.0526,3.0593,3.0619,3.0602,3.06,3.0621,3.0624,3.062,3.0625,3.0383,3.0595,3.0593,3.0592,3.0591,3.059,3.0069,3.0122,3.0155,3.0216,3.0245,3.0284,3.0337,3.0353,3.0411,3.0478,3.0473,3.0553,3.0598,3.0684,3.0716,3.0782,3.0756,3.0786,3.0794,3.0802,3.0811,3.0608,3.0794,3.0794,3.0793,3.0793,3.0793,0,3.0246,3.0266,3.0321,3.0377,3.0426,3.0401,3.0446,3.049,3.0558,3.0599,3.0653,3.0738,3.0807,3.0837,3.0906,3.0954,3.0949,3.0973,3.097,3.0978,3.0828,3.0804,3.0977,3.0977,3.0977,3.0977,3.0977,3.0977,3.0343,3.0431,3.0434,3.0539,3.0561,3.0635,3.0663,3.0702,3.0734,3.0828,3.0884,3.0901,3.094,3.1013,3.1077,3.1085,3.1113,3.1142,3.1146,3.1006,3.0988,3.097,3.0947,3.1147,3.1148,3.129,3.1292,3.1293]},{"header":{"parameterUnit":"m.s-1","parameterCategory":1,"la1":30.2991,"la2":30.254,"lo1":-89.0895,"lo2":-89.0444,"dy":0.0017,"dx":0.0017,"nx":28,"ny":28,"refTime":"2025-04-09T09:00:00:Z","depth":0,"parameterNumber":3,"parameterNumberName":"V-component_of_WINDS"},"data":[0,0,0,0,0,0,0,0,0,0,0,0,0,0,0,0,0,0,0,0,0,0,0,0,0,0,0,0,0,0,0,0,0,0,0,0,0,0,0,0,0,0,0,0,0,0,0,0,0,0,0,0,0,0,0,0,0,0,1.6603,1.6605,0,1.6761,1.6763,1.6765,1.6812,1.6811,1.681,1.6809,1.6978,1.6983,1.6988,0,0,0,0,0,0,0,0,0,0,0,0,0,1.6349,1.6354,1.6603,1.6605,1.6607,1.6761,1.6763,1.6765,1.6812,1.6811,1.681,1.6809,1.6976,1.6982,1.6989,0,0,0,0,0,0,0,0,0,0,0,0,0,1.6479,1.6355,1.6603,1.6648,1.6654,1.6761,1.6763,1.6766,1.6812,1.6811,1.681,1.6808,1.6974,1.6982,1.699,1.7064,0,0,1.7014,1.7017,0,0,0,0,0,0,0,0,1.6471,1.6488,1.664,1.6646,1.6652,1.6765,1.6736,1.6866,1.6812,1.6752,1.6809,1.6808,1.6909,1.6922,1.6954,1.7071,1.7079,1.7014,1.7019,1.7023,1.7025,0,0,0,0,0,0,0,1.6462,1.6482,1.6666,1.6642,1.665,1.6664,1.6681,1.6761,1.6836,1.6758,1.6761,1.6779,1.6912,1.6947,1.6959,1.7081,1.7014,1.7021,1.7026,1.7029,1.7271,1.7273,0,0,0,0,0,0,1.6444,1.6474,1.6661,1.6671,1.6557,1.667,1.6689,1.673,1.6835,1.685,1.678,1.6781,1.6934,1.6949,1.6965,1.7061,1.7022,1.703,1.7034,1.7269,1.7271,1.7273,0,0,0,0,0,0,1.6439,1.6461,1.6654,1.6573,1.6599,1.6675,1.6722,1.6734,1.6769,1.6852,1.6866,1.6801,1.6933,1.6954,1.7039,1.7067,1.7033,1.7041,1.7267,1.727,1.7272,1.7251,0,0,0,0,0,0,1.6431,1.6458,1.6485,1.6573,1.6603,1.6723,1.6724,1.6738,1.6782,1.6784,1.6876,1.689,1.6934,1.7027,1.7047,1.7077,1.7047,1.7265,1.7268,1.7271,1.725,1.7253,1.7255,0,0,0,0,0,1.6422,1.6474,1.6486,1.6508,1.6638,1.6725,1.6742,1.679,1.6784,1.6813,1.6867,1.6887,1.7061,1.7035,1.7058,1.7091,1.7264,1.7268,1.7271,1.7249,1.7252,1.7255,0,0,0,0,0,0,1.6388,1.6486,1.6501,1.6582,1.6644,1.6732,1.677,1.6792,1.6859,1.6859,1.6917,1.6938,1.702,1.7064,1.7034,1.7171,1.7163,1.7172,1.7138,1.7142,1.7145,1.7133,1.7053,0,0,0,0,0,1.639,1.645,1.6533,1.6597,1.6627,1.6693,1.6733,1.6764,1.6833,1.686,1.692,1.6987,1.7057,1.7102,1.7171,1.7257,1.7279,1.7291,1.7294,1.7296,1.7303,1.7355,1.7362,1.7286,1.7286,1.7285,0,0,1.6394,1.6455,1.649,1.6591,1.6643,1.6707,1.6715,1.6782,1.683,1.6871,1.6955,1.7001,1.7081,1.7167,1.7208,1.7207,1.7329,1.7301,1.7301,1.7308,1.7359,1.7367,1.7373,1.7288,1.7288,1.7287,0,0,1.6435,1.6486,1.6546,1.6598,1.6677,1.6721,1.6735,1.682,1.6852,1.6937,1.697,1.703,1.7149,1.7205,1.7249,1.7314,1.7337,1.7335,1.735,1.74,1.7406,1.7411,1.7437,1.7445,1.7342,1.7342,1.7342,0,1.6432,1.6526,1.6574,1.664,1.6685,1.6723,1.6786,1.6835,1.6933,1.6965,1.6961,1.7113,1.7169,1.727,1.7286,1.732,1.7341,1.7325,1.74,1.7407,1.7413,1.7438,1.7447,1.7341,1.7341,1.7341,1.7341,0,1.6519,1.6585,1.6624,1.6716,1.6766,1.683,1.6891,1.6936,1.6964,1.7009,1.7098,1.7166,1.7251,1.7277,1.7306,1.7384,1.7381,1.7388,1.7382,1.7419,1.7444,1.7454,1.734,1.7341,1.7341,1.7341,0,0,1.6542,1.6661,1.6675,1.6718,1.6809,1.6862,1.6929,1.7011,1.705,1.7117,1.7177,1.7277,1.7285,1.7335,1.7371,1.7414,1.7465,1.7417,1.742,1.7425,1.7559,1.7554,1.7564,1.748,1.7482,1.7484,1.7554,0,1.6596,1.6715,1.6761,1.6859,1.6922,1.6961,1.702,1.7084,1.7129,1.7191,1.7242,1.7313,1.7317,1.7348,1.7393,1.7449,1.7493,1.7445,1.754,1.7542,1.7519,1.7577,1.7571,1.7634,1.7563,1.7565,1.7566,0,1.6674,1.674,1.6844,1.6929,1.6958,1.7009,1.709,1.7148,1.7222,1.7253,1.7309,1.7343,1.7418,1.7407,1.7514,1.748,1.7522,1.7556,1.756,1.7572,1.7557,1.7592,1.7654,1.7664,1.7582,1.758,1.7579,0,1.6683,1.6798,1.6876,1.6912,1.7013,1.7049,1.7093,1.7166,1.7213,1.7284,1.7316,1.7395,1.7439,1.7501,1.7557,1.7543,1.766,1.7652,1.769,1.7689,1.7713,1.7711,1.7785,1.7738,1.7737,1.7737,1.7737,0,1.6738,1.6801,1.6881,1.6929,1.7002,1.7057,1.7128,1.7175,1.7241,1.7301,1.734,1.7396,1.7465,1.7532,1.7576,1.766,1.7679,1.7708,1.7719,1.7705,1.7702,1.7734,1.7732,1.774,1.7739,1.7739,1.7738,0,1.676,1.6816,1.6904,1.6992,1.7016,1.7066,1.7144,1.7194,1.7241,1.7317,1.7338,1.7414,1.7494,1.7555,1.766,1.769,1.778,1.7791,1.7754,1.776,1.7795,1.7791,1.7893,1.791,1.7849,1.785,1.785,0,1.6792,1.6841,1.6935,1.6977,1.7021,1.7088,1.7136,1.7194,1.7243,1.7333,1.7373,1.7456,1.7525,1.7653,1.7719,1.78,1.7815,1.7845,1.7827,1.7813,1.7818,1.7815,1.7822,1.7847,1.7848,1.7848,1.7848,0,1.6844,1.687,1.6936,1.7014,1.7069,1.7133,1.7199,1.7232,1.7301,1.7355,1.7437,1.7491,1.7598,1.7681,1.777,1.7819,1.7847,1.7853,1.7867,1.7854,1.7831,1.7846,1.7762,1.7851,1.7851,1.785,1.785,1.785,1.6874,1.692,1.6994,1.7068,1.7122,1.7183,1.7235,1.7289,1.7357,1.7447,1.7478,1.7563,1.7641,1.7763,1.7813,1.7883,1.7884,1.7902,1.7908,1.7912,1.7912,1.7818,1.7899,1.7899,1.7899,1.7899,1.7899,0,1.693,1.6979,1.7046,1.7136,1.7195,1.7213,1.7287,1.7336,1.741,1.7479,1.7547,1.7643,1.7724,1.7797,1.7883,1.7926,1.7941,1.7946,1.7945,1.7956,1.7905,1.7886,1.7933,1.7933,1.7933,1.7933,1.7933,1.7933,1.6965,1.7045,1.7081,1.719,1.724,1.7322,1.7364,1.7421,1.7477,1.7581,1.7649,1.7695,1.7767,1.7859,1.7936,1.7956,1.7987,1.799,1.8013,1.7964,1.796,1.7956,1.7938,1.7995,1.7995,1.8059,1.806,1.806]}]]